Home   Weather   USA   Fairbury   Past weeks
Flag for USA

Past Weather in Fairbury, Nebraska, USA — Yesterday and Last 2 Weeks

Currently: 65 °F. Clear. (Weather station: Hebron Municipal Airport, USA). See more current weather

Past Weather in Fairbury — Graph

°F

Fairbury Temperature Yesterday

Maximum temperature yesterday: 80 °F (at 4:15 pm)
Minimum temperature yesterday: 54 °F (at 7:35 am)
Average temperature yesterday: 66 °F

High & Low Weather Summary for the Past Weeks

 TemperatureHumidityPressure
High87 °F (Oct 8, 3:35 pm)100% (Oct 6, 3:15 am)30.33 "Hg (Oct 6, 3:15 am)
Low33 °F (Oct 16, 7:35 am)22% (Oct 17, 3:35 pm)29.48 "Hg (Oct 13, 5:55 am)
Average59 °F66%29.95 "Hg
* Reported Oct 5 1:15 am — Oct 20 1:55 am, Fairbury. Weather by CustomWeather, © 2021

Note: Actual official high and low records may vary slightly from our data, if they occured in-between our weather recording intervals... More about our weather records

Fairbury Weather History for the Previous 24 Hours

Scroll right to see more
 ConditionsComfort  
Time TempWeatherWind HumidityBarometerVisibility
1:55 am
Wed, Oct 20
64 °FClear.12 mph79%29.82 "Hg10 mi
1:35 am64 °FClear.12 mph80%29.82 "Hg10 mi
1:15 am64 °FClear.12 mph79%29.83 "Hg10 mi
12:55 am65 °FClear.13 mph78%29.83 "Hg10 mi
12:35 am65 °FClear.10 mph78%29.83 "Hg10 mi
12:15 am65 °FClear.10 mph76%29.84 "Hg10 mi
11:55 pm
Tue, Oct 19
66 °FClear.9 mph75%29.85 "Hg10 mi
11:35 pm66 °FClear.9 mph74%29.85 "Hg10 mi
11:15 pm67 °FClear.9 mph72%29.86 "Hg10 mi
10:55 pm67 °FClear.9 mph71%29.84 "Hg10 mi
10:35 pm68 °FClear.12 mph69%29.83 "Hg10 mi
10:15 pm68 °FClear.12 mph69%29.83 "Hg10 mi
9:55 pm68 °FClear.10 mph67%29.83 "Hg10 mi
9:35 pm68 °FClear.10 mph66%29.83 "Hg10 mi
9:15 pm68 °FClear.12 mph65%29.82 "Hg10 mi
8:55 pm69 °FClear.13 mph63%29.81 "Hg10 mi
8:35 pm70 °FClear.14 mph62%29.81 "Hg10 mi
8:15 pm71 °FClear.15 mph59%29.80 "Hg10 mi
7:55 pm71 °FClear.14 mph60%29.81 "Hg10 mi
7:15 pm72 °FClear.8 mph57%29.80 "Hg10 mi
6:55 pm73 °FClear.12 mph54%29.79 "Hg10 mi
6:35 pm74 °FSunny.13 mph51%29.78 "Hg10 mi
6:15 pm76 °FSunny.16 mph47%29.76 "Hg10 mi
5:55 pm77 °FSunny.15 mph46%29.76 "Hg10 mi
5:35 pm78 °FSunny.16 mph44%29.76 "Hg10 mi
5:15 pm79 °FSunny.16 mph43%29.76 "Hg10 mi
4:55 pm80 °FSunny.20 mph41%29.77 "Hg10 mi
4:35 pm79 °FSunny.18 mph41%29.77 "Hg10 mi
4:15 pm80 °FSunny.20 mph41%29.76 "Hg10 mi
3:55 pm79 °FSunny.18 mph41%29.76 "Hg10 mi
3:35 pm79 °FSunny.20 mph40%29.77 "Hg10 mi
3:15 pm79 °FSunny.17 mph40%29.77 "Hg10 mi
2:35 pm77 °FSunny.20 mph41%29.78 "Hg10 mi
2:15 pm76 °FSunny.15 mph41%29.79 "Hg10 mi
1:55 pm75 °FSunny.20 mph43%29.80 "Hg10 mi
1:35 pm74 °FSunny.18 mph43%29.81 "Hg10 mi
1:15 pm74 °FSunny.20 mph44%29.81 "Hg10 mi
12:55 pm72 °FSunny.16 mph46%29.82 "Hg10 mi
12:35 pm71 °FSunny.15 mph47%29.83 "Hg10 mi
12:15 pm70 °FSunny.16 mph49%29.84 "Hg10 mi
11:55 am69 °FSunny.16 mph51%29.85 "Hg10 mi
11:35 am68 °FSunny.15 mph52%29.85 "Hg10 mi
11:15 am67 °FSunny.14 mph53%29.85 "Hg10 mi
10:55 am66 °FSunny.17 mph54%29.85 "Hg10 mi
10:35 am64 °FSunny.20 mph57%29.85 "Hg10 mi
10:15 am62 °FSunny.20 mph59%29.85 "Hg10 mi
9:55 am61 °FSunny.16 mph60%29.85 "Hg10 mi
9:35 am60 °FSunny.17 mph62%29.85 "Hg10 mi
9:15 am59 °FSunny.14 mph64%29.85 "Hg10 mi
8:55 am57 °FSunny.13 mph67%29.84 "Hg10 mi
8:35 am56 °FSunny.10 mph69%29.84 "Hg10 mi
8:15 am55 °FSunny.10 mph71%29.84 "Hg10 mi
7:55 am54 °FSunny.9 mph72%29.84 "Hg10 mi
7:35 am54 °FClear.7 mph72%29.83 "Hg10 mi
7:15 am55 °FClear.8 mph70%29.83 "Hg10 mi
6:55 am55 °FClear.8 mph70%29.83 "Hg10 mi
6:35 am55 °FClear.10 mph70%29.83 "Hg10 mi
6:15 am55 °FClear.9 mph69%29.83 "Hg10 mi
5:55 am55 °FClear.8 mph69%29.83 "Hg10 mi
5:35 am55 °FClear.9 mph69%29.84 "Hg10 mi
5:15 am55 °FClear.9 mph69%29.84 "Hg10 mi
4:55 am55 °FClear.9 mph68%29.84 "Hg10 mi
4:35 am56 °FPassing clouds.10 mph67%29.84 "Hg10 mi
4:15 am56 °FPassing clouds.9 mph67%29.85 "Hg10 mi
3:55 am56 °FPassing clouds.9 mph66%29.85 "Hg10 mi
3:15 am57 °FClear.12 mph63%29.86 "Hg10 mi
Weather by CustomWeather, © 2021

See weather overview